Location: Buena Vista Beach
(41.8098°N, 81.1279°W)
Time: 18:15:39
(UTC+00:00)

Cosmos 2369 - Pass Details

Date: 29 October 2020
Orbit: 840 x 855 km, 71.0° (Epoch: 24 November)

Event Time Altitude Azimuth Distance (km) Brightness Sun altitude
Rises 23:30:29 0° 190° (S) 3,408 7.1 -13.3°
Reaches altitude 10° 23:32:58 10° 186° (S) 2,475 6.3 -13.8°
Maximum altitude 23:38:32 58° 109° (ESE) 993 3.8 -14.8°
Drops below altitude 10° 23:44:06 10° 32° (NNE) 2,483 5.8 -15.8°
Enters shadow 23:45:09 - 30° (NNE) 2,874 6.1 -16.0°
